When you browse on this site, cookies collect data to enhance your experience and personalize the content and advertising you see.
Visit our Privacy Policy to learn more. By continuing to use the site, you agree to this use of cookies and data.
  • Em Portugal
  • Lista de países
  • Para 7 dias
  • Temperatura da água
  • Mapas de satélite
  • Mapa do tempo
  • Widgets de tempo
  • user-avatar
    Iniciar Sessão

    Previsão horária em Belick

    Hoje, 17 Junho, Segunda-feira

    Tempo Temperatura Precipitação Vento Pressão Humidade
    00:00 +19°C° 0 mm 2 m/s 748 mmHg 79%
    01:00 +19°C° 0 mm 2 m/s 748 mmHg 78%
    02:00 +19°C° 0 mm 2 m/s 749 mmHg 73%
    03:00 +19°C° 0 mm 2 m/s 748 mmHg 76%
    04:00 +19°C° 0 mm 2 m/s 748 mmHg 79%
    05:00 +20°C° 0 mm 1 m/s 748 mmHg 82%
    06:00 +20°C° 0 mm 2 m/s 748 mmHg 79%
    07:00 +21°C° 0 mm 2 m/s 749 mmHg 76%
    08:00 +24°C° 0 mm 3 m/s 749 mmHg 73%
    09:00 +25°C° 0 mm 3 m/s 749 mmHg 70%
    10:00 +26°C° 0 mm 3 m/s 748 mmHg 67%
    11:00 +27°C° 0 mm 3 m/s 748 mmHg 64%
    12:00 +28°C° 0.4 mm 3 m/s 748 mmHg 66%
    13:00 +28°C° 0.4 mm 3 m/s 748 mmHg 68%
    14:00 +28°C° 0.4 mm 3 m/s 748 mmHg 70%
    15:00 +28°C° 1.2 mm 3 m/s 748 mmHg 73%
    16:00 +27°C° 1.2 mm 4 m/s 748 mmHg 76%
    17:00 +27°C° 1.2 mm 4 m/s 747 mmHg 79%
    18:00 +25°C° 0.3 mm 4 m/s 748 mmHg 82%
    19:00 +23°C° 0.3 mm 4 m/s 748 mmHg 85%
    20:00 +21°C° 0.3 mm 4 m/s 748 mmHg 88%
    21:00 +20°C° 0 mm 4 m/s 748 mmHg 90%
    22:00 +18°C° 0 mm 4 m/s 748 mmHg 91%
    23:00 +17°C° 0 mm 4 m/s 748 mmHg 93%

    Amanhã, 18 Junho, Terça-feira

    Tempo Temperatura Precipitação Vento Pressão Humidade
    00:00 +17°C° 0 mm 3 m/s 749 mmHg 94%
    01:00 +16°C° 0 mm 3 m/s 749 mmHg 95%
    02:00 +14°C° 0 mm 3 m/s 749 mmHg 96%
    03:00 +16°C° 0 mm 3 m/s 749 mmHg 96%
    04:00 +16°C° 0 mm 3 m/s 749 mmHg 97%
    05:00 +16°C° 0 mm 3 m/s 749 mmHg 97%
    06:00 +17°C° 0 mm 3 m/s 749 mmHg 94%
    07:00 +18°C° 0 mm 3 m/s 749 mmHg 90%
    08:00 +19°C° 0 mm 4 m/s 750 mmHg 87%
    09:00 +20°C° 0 mm 4 m/s 750 mmHg 85%
    10:00 +21°C° 0 mm 4 m/s 750 mmHg 83%
    11:00 +22°C° 0 mm 4 m/s 750 mmHg 81%
    12:00 +23°C° 0.1 mm 4 m/s 750 mmHg 77%
    13:00 +25°C° 0.1 mm 4 m/s 749 mmHg 73%
    14:00 +26°C° 0.1 mm 4 m/s 749 mmHg 69%
    15:00 +25°C° 0.1 mm 5 m/s 749 mmHg 70%
    16:00 +25°C° 0.1 mm 5 m/s 749 mmHg 71%
    17:00 +25°C° 0.1 mm 5 m/s 749 mmHg 72%
    18:00 +23°C° 0.1 mm 4 m/s 749 mmHg 77%
    19:00 +21°C° 0.1 mm 4 m/s 749 mmHg 82%
    20:00 +20°C° 0.1 mm 3 m/s 750 mmHg 87%
    21:00 +19°C° 0 mm 3 m/s 750 mmHg 87%
    22:00 +18°C° 0 mm 3 m/s 750 mmHg 87%
    23:00 +17°C° 0 mm 3 m/s 750 mmHg 88%

    Depois de amanhã, 19 Junho, Quarta-feira

    Tempo Temperatura Precipitação Vento Pressão Humidade
    00:00 +16°C° 0 mm 3 m/s 750 mmHg 86%
    01:00 +16°C° 0 mm 3 m/s 750 mmHg 85%
    02:00 +14°C° 0 mm 3 m/s 750 mmHg 84%
    03:00 +14°C° 0 mm 3 m/s 750 mmHg 83%
    04:00 +14°C° 0 mm 3 m/s 751 mmHg 83%
    05:00 +14°C° 0 mm 3 m/s 751 mmHg 82%
    06:00 +17°C° 0 mm 3 m/s 751 mmHg 78%
    07:00 +19°C° 0 mm 3 m/s 751 mmHg 74%
    08:00 +21°C° 0 mm 3 m/s 751 mmHg 69%
    09:00 +23°C° 0 mm 2 m/s 751 mmHg 64%
    10:00 +24°C° 0 mm 2 m/s 751 mmHg 58%
    11:00 +25°C° 0 mm 2 m/s 751 mmHg 53%
    12:00 +26°C° 0 mm 2 m/s 751 mmHg 50%
    13:00 +26°C° 0 mm 2 m/s 751 mmHg 48%
    14:00 +27°C° 0 mm 2 m/s 750 mmHg 46%
    15:00 +27°C° 0 mm 2 m/s 750 mmHg 51%
    16:00 +26°C° 0 mm 2 m/s 750 mmHg 56%
    17:00 +26°C° 0 mm 2 m/s 750 mmHg 62%
    18:00 +24°C° 0 mm 2 m/s 750 mmHg 65%
    19:00 +23°C° 0 mm 2 m/s 750 mmHg 69%
    20:00 +20°C° 0 mm 2 m/s 749 mmHg 73%
    21:00 +19°C° 0 mm 2 m/s 750 mmHg 74%
    22:00 +18°C° 0 mm 2 m/s 750 mmHg 75%
    23:00 +17°C° 0 mm 2 m/s 750 mmHg 76%

    20 Junho, Quinta-feira

    Tempo Temperatura Precipitação Vento Pressão Humidade
    00:00 +17°C° 0 mm 2 m/s 750 mmHg 78%
    01:00 +16°C° 0 mm 2 m/s 750 mmHg 79%
    02:00 +16°C° 0 mm 2 m/s 750 mmHg 80%
    03:00 +16°C° 0 mm 2 m/s 750 mmHg 81%
    04:00 +16°C° 0 mm 2 m/s 750 mmHg 82%
    05:00 +16°C° 0 mm 2 m/s 750 mmHg 83%
    06:00 +18°C° 0 mm 2 m/s 750 mmHg 79%
    07:00 +20°C° 0 mm 3 m/s 750 mmHg 76%
    08:00 +22°C° 0 mm 3 m/s 750 mmHg 72%
    09:00 +24°C° 0 mm 3 m/s 750 mmHg 68%
    10:00 +25°C° 0 mm 3 m/s 750 mmHg 63%
    11:00 +27°C° 0 mm 4 m/s 750 mmHg 59%
    12:00 +27°C° 0 mm 3 m/s 750 mmHg 57%
    13:00 +27°C° 0 mm 3 m/s 749 mmHg 55%
    14:00 +28°C° 0 mm 3 m/s 749 mmHg 53%
    15:00 +28°C° 0 mm 3 m/s 749 mmHg 56%
    16:00 +28°C° 0 mm 3 m/s 749 mmHg 58%
    17:00 +28°C° 0 mm 3 m/s 749 mmHg 61%
    18:00 +26°C° 0 mm 3 m/s 749 mmHg 66%
    19:00 +25°C° 0 mm 3 m/s 749 mmHg 72%
    20:00 +22°C° 0 mm 3 m/s 749 mmHg 77%
    21:00 +21°C° 0 mm 3 m/s 749 mmHg 80%
    22:00 +21°C° 0 mm 3 m/s 749 mmHg 83%
    23:00 +20°C° 0 mm 3 m/s 749 mmHg 86%

    21 Junho, Sexta-feira

    Tempo Temperatura Precipitação Vento Pressão Humidade
    00:00 +20°C° 0 mm 3 m/s 749 mmHg 87%
    01:00 +19°C° 0 mm 3 m/s 749 mmHg 89%
    02:00 +19°C° 0 mm 3 m/s 749 mmHg 91%
    03:00 +19°C° 0 mm 3 m/s 750 mmHg 90%
    04:00 +19°C° 0 mm 3 m/s 750 mmHg 90%
    05:00 +19°C° 0 mm 3 m/s 750 mmHg 90%
    06:00 +20°C° 0 mm 3 m/s 750 mmHg 85%
    07:00 +22°C° 0 mm 3 m/s 750 mmHg 80%
    08:00 +23°C° 0 mm 4 m/s 750 mmHg 75%
    09:00 +25°C° 0 mm 4 m/s 750 mmHg 70%
    10:00 +26°C° 0 mm 4 m/s 750 mmHg 64%
    11:00 +27°C° 0 mm 4 m/s 750 mmHg 59%
    12:00 +28°C° 0 mm 4 m/s 750 mmHg 58%
    13:00 +28°C° 0 mm 4 m/s 749 mmHg 58%
    14:00 +29°C° 0 mm 4 m/s 749 mmHg 57%
    15:00 +28°C° 0 mm 4 m/s 749 mmHg 59%
    16:00 +28°C° 0 mm 4 m/s 749 mmHg 62%
    17:00 +28°C° 0 mm 3 m/s 748 mmHg 64%
    18:00 +27°C° 0 mm 3 m/s 748 mmHg 68%
    19:00 +25°C° 0 mm 3 m/s 748 mmHg 72%
    20:00 +22°C° 0 mm 3 m/s 748 mmHg 75%
    21:00 +22°C° 0 mm 4 m/s 749 mmHg 76%
    22:00 +21°C° 0 mm 4 m/s 749 mmHg 76%
    23:00 +21°C° 0 mm 4 m/s 749 mmHg 77%

    22 Junho, Sábado

    Tempo Temperatura Precipitação Vento Pressão Humidade
    00:00 +20°C° 0 mm 4 m/s 749 mmHg 79%
    01:00 +20°C° 0 mm 4 m/s 749 mmHg 81%
    02:00 +19°C° 0 mm 3 m/s 749 mmHg 83%
    03:00 +19°C° 0 mm 3 m/s 749 mmHg 84%
    04:00 +19°C° 0 mm 4 m/s 749 mmHg 84%
    05:00 +20°C° 0 mm 4 m/s 749 mmHg 84%
    06:00 +21°C° 0 mm 4 m/s 749 mmHg 81%
    07:00 +23°C° 0 mm 4 m/s 749 mmHg 77%
    08:00 +25°C° 0 mm 4 m/s 749 mmHg 74%
    09:00 +26°C° 0 mm 5 m/s 749 mmHg 70%
    10:00 +28°C° 0 mm 5 m/s 749 mmHg 65%
    11:00 +29°C° 0 mm 5 m/s 749 mmHg 61%
    12:00 +29°C° 0.1 mm 5 m/s 749 mmHg 60%
    13:00 +30°C° 0.1 mm 5 m/s 749 mmHg 59%
    14:00 +30°C° 0.1 mm 5 m/s 749 mmHg 57%
    15:00 +30°C° 0.1 mm 4 m/s 749 mmHg 58%
    16:00 +30°C° 0.1 mm 3 m/s 749 mmHg 60%
    17:00 +30°C° 0.1 mm 3 m/s 749 mmHg 61%
    18:00 +28°C° 0 mm 2 m/s 749 mmHg 65%
    19:00 +26°C° 0 mm 2 m/s 749 mmHg 69%
    20:00 +25°C° 0 mm 2 m/s 749 mmHg 72%
    21:00 +24°C° 0 mm 2 m/s 749 mmHg 75%
    22:00 +23°C° 0 mm 2 m/s 749 mmHg 78%
    23:00 +21°C° 0 mm 3 m/s 749 mmHg 81%
    Mostrar mais